Preview of NWS' New Version of Forecast
This preview is not operational and should not be used for support decisions.

Regional Weather Roundup (RWR)

Issued by National Weather Service (NWS)

                            
000
ASUS43 KDMX 182306
RWRIA 

WEATHER ROUNDUP FOR IOWA
NATIONAL WEATHER SERVICE DES MOINES IA
500 PM CST MON FEB 18 2019

NOTE: "FAIR" INDICATES FEW OR NO CLOUDS BELOW 12,000 FEET WITH NO
SIGNIFICANT WEATHER AND/OR OBSTRUCTIONS TO VISIBILITY.

* - THESE STATIONS ARE NOT NWS STATIONS...THUS NOT UNDER NWS
QUALITY CONTROL.  THEY ALSO DO NOT REPORT WEATHER SUCH 
AS PRECIPITATION OR FOG.  

IAZ001>003-012>014-020>022-031>034-043>046-190000-
   NORTHWEST IOWA
  
CITY           SKY/WX    TMP DP  RH WIND       PRES   REMARKS
CARROLL *      CLEAR     12   7  79 NW8       30.49S WCI   1          
CHEROKEE *     CLEAR     13   7  76 CALM      30.49S                  
DENISON *      CLEAR     14   5  67 CALM      30.51R                  
LE MARS *      CLEAR     10   3  72 NW6       30.50F WCI   1          
ORANGE CITY *  CLEAR      9   5  85 W5        30.48R WCI   0          
SHELDON *      CLEAR      9   7  92 CALM      30.45F                  
SIOUX CITY     CLEAR     13   4  67 N8        30.51S WCI   2          
SPENCER        CLEAR     13   4  67 CALM      30.48R                  
STORM LAKE *   CLEAR      9   5  85 W6        30.47R WCI  -1          
$$
 
IAZ055>058-069>071-079>083-090>094-190000-
   SOUTHWEST IOWA
  
CITY           SKY/WX    TMP DP  RH WIND       PRES   REMARKS
ATLANTIC *     CLEAR     14   9  79 N7        30.49F WCI   4          
AUDUBON *      CLEAR     16   7  67 CALM      30.49S                  
CLARINDA *     CLOUDY    18  10  73 N8        30.54R WCI   7          
COUNCIL BLFS * CLEAR     16  10  79 N7        30.49S WCI   6          
CRESTON *      CLEAR     16   7  67 NW7       30.49S WCI   6          
HARLAN  *      CLEAR     12   7  79 N5        30.49F WCI   4          
LAMONI         CLEAR     20  11  68 NW7       30.47R WCI  11          
RED OAK *      PTCLDY    16  10  79 N6        30.51F WCI   7          
SHENANDOAH *   PTCLDY    18  10  73 N6        30.53R WCI   9          
$$
 
IAZ047>049-059>061-072>074-084-190000-
   CENTRAL IOWA
  
CITY           SKY/WX    TMP DP  RH WIND       PRES   REMARKS
AMES           CLEAR     15   7  70 N9        30.50R WCI   3          
ANKENY *       CLEAR     16   9  73 NW8       30.52R WCI   5          
BOONE *        CLEAR     12   9  85 N7        30.48R WCI   2          
CHARITON *     CLEAR     19  10  68 N3        30.48R                  
DES MOINES     PTCLDY    18   8  65 NW9       30.50R WCI   7          
GRINNELL*      CLEAR     12   7  82 NW7       30.49R WCI   1          
KNOXVILLE *    CLEAR     18  12  79 N9        30.48S WCI   6          
MARSHALLTOWN   CLEAR      8   4  83 NW8       30.48R WCI  -4          
NEWTON *       CLEAR     14   9  79 N7        30.49R WCI   4          
PELLA *        CLEAR     18   9  67 NW8       30.51S WCI   8          
PERRY *        FAIR      13   7  77 CALM      30.50S                  
$$
 
IAZ004>006-015-016-023>025-035-036-190000-
   NORTH CENTRAL IOWA
  
CITY           SKY/WX    TMP DP  RH WIND       PRES   REMARKS
ALGONA *       CLEAR     12   7  79 NW5       30.48S WCI   4          
CLARION *      CLEAR      9   5  85 NW5       30.49S WCI   0          
ESTHERVILLE    CLEAR      6   2  83 NW7       30.47S WCI  -6          
FORT DODGE *   CLEAR     14   6  70 NW7       30.49F WCI   4          
MASON CITY     CLEAR     10   5  80 NW8       30.48R WCI  -2          
FOREST CITY *  FAIR      12   9  85 NW7       30.48S WCI   2          
IOWA FALLS *   FAIR      12   7  81 W7        30.49S WCI   2          
$$

IAZ007>011-017>019-026>030-037>042-050>054-066-190000-
   NORTHEAST IOWA
  
CITY           SKY/WX    TMP DP  RH WIND       PRES   REMARKS
CEDAR RAPIDS   FAIR      11   7  84 NW9       30.46R WCI  -2          
CHARLES CITY * FAIR      12   7  79 NW6       30.47R WCI   3          
CLINTON *      FAIR      18  12  77 W9        30.47R WCI   7          
DECORAH *      FAIR      18  12  79 NW9       30.43R WCI   6          
DUBUQUE        FAIR      19  11  70 W7        30.43R WCI  10          
OELWEIN *      FAIR      10   7  85 NW6       30.46S WCI   1          
WATERLOO       FAIR      17   9  70 NW7       30.47S WCI   8          
$$
 
IAZ064-065-067-068-078-190000-
   EAST CENTRAL IOWA
  
CITY           SKY/WX    TMP DP  RH WIND       PRES   REMARKS
DAVENPORT      FAIR      21  13  71 W9        30.49R WCI  11          
IOWA CITY      FAIR      21  11  65 NW8       30.50R WCI  11          
MT. PLEASANT * CLEAR     27  19  74 N8        30.48S WCI  18          
MUSCATINE *    FAIR      23  14  68 NW8       30.50S WCI  14          
QUAD CITIES    FAIR      26  14  60 NW9       30.47R WCI  17          
$$
 
IAZ062-063-075>077-085>089-095>099-190000-
   SOUTHEAST IOWA
  
CITY           SKY/WX    TMP DP  RH WIND       PRES   REMARKS
BURLINGTON     CLEAR     26  15  63 N7        30.47S WCI  18          
FAIRFIELD *    CLEAR     21  14  73 NW8       30.48S WCI  12          
KEOKUK *       PTCLDY    28  19  69 NW8       30.48R WCI  20          
OSKALOOSA *    FAIR      15   9  75 NW9       30.49S WCI   3          
OTTUMWA        CLEAR     19  11  70 NW7       30.49R WCI  10          
WASHINGTON *   CLEAR     19  14  79 NW8       30.49S WCI   9          
$$

ABBREVIATIONS USED IN REMARKS
   TC - TEMPERATURES IN CELSIUS
  WCI - WIND CHILL INDEX
   HX - HEAT INDEX
  VSB - VISIBILITY  
$$